STARLINK-34110, 63811

Orbit data source: Space-Track

STARLINK-34110, 63811 is a payload satellite owned by SpaceX/Seattle (US) in LEO that was launched on Sun, 04 May 2025 UTC via an FALCON 9 launch vehicle from the Air Force Eastern Test Range (AFETR). Payload-class satellites include a variety of spacecraft equipped with specific instruments for various scientific and technological missions. These include communications satellites like Starlink; space stations such as the ISS; scientific satellites like the Hubble; Earth observation satellites from companies like Planet Labs, Umbra, and HawkEye 360; GPS; miniature CubeSats for education and research; and military/defense satellites.

Loading next visibility...
Identifier
63811, 2025-092H
Orbit
LEO
Country
Flag of USUS
Related business
Manufacturer
SpaceX/Seattle
Mission
Operational Commercial Communications
Bus & Motor
STARLINK V2MO, Unknown motor
Mass
575 kg wet, ~530 kg dry
Launch date (UTC)
2025-05-04 (7 months ago)
Launch vehicle
FALCON 9
Launch site
Air Force Eastern Test Range (AFETR)
Object type
Payload
Rocket body
Debris
Shape & HBR
Box + 2 Pan, 17.7 m
Radar Cross Section
36.964 m², Large (>1 m²)

Expand to show TLE details & history
Last TLE update: 17 hours ago

TLE from 17 hours ago
0 STARLINK-34110
1 63811U 25092H   25347.25284121  .00139052  00000-0  47647-2 0  9993
2 63811  42.9952 300.8421 0000516 176.8808 183.2047 15.28947245 35448
Epoch: 2025-12-13T06:04Z
TLE epoch observation values (Epoch: 2025-12-13T06:04:05.480Z)
Latitude
-0.00005°
Longitude
127.63645°
Altitude
479.086 km
Speed
7.628 km/s
True Right ascension
20h 03m 22s
True Declination
0° 00' 00"
Sunlit
Object was in daylight at epoch
Visualization orbit readout
Latitude
Unknown
Longitude
Unknown
Altitude
Unknown
Speed
Unknown
Apparent Right ascension
Unknown
Apparent Declination
Unknown
Sunlit
N/A
Visualization observer readout
Local Sidereal Time
21:34:46
Azimuth
Unknown
Elevation
Unknown
Doppler factor
Unknown
Orbital elements
Apogee altitude
481.259 km
Perigee altitude
480.551 km
Semi-major axis
6,859.042 km
Eccentricity
0.00005
Inclination
42.9952°
RAAN
300.8421°
Arg. of periapsis
176.8808°
True anomaly
183.20437°
Mean anomaly
183.2047°
Eccentric anomaly
183.20453°
Mean motion
3.82074 °/min
Orbital period
94.22 mins
BSTAR
0.0047647
Loading maneuver chart data...
Computing Atmospheric mass density...
Loading historical data...
Loading historical data...
Loading historical data...
Loading historical data...
Loading historical data...
Loading historical data...
Loading historical data...

Documentation

Showing up to 5 results
|